sat.trackr.live / text

‹ back to catalog

STARLINK-3103

NORAD 49177 · 2021-082AZ

PAYLOAD ACTIVE UNKNOWN

§ Identity

Operator
Country
US
Launch date
2021-09-14
Launch site
AFWTR
Launch vehicle
Mass (kg)
RCS (m²)

Purposes: comms

External: N2YO · Heavens-Above · Gunter

§ Orbital elements

Epoch: 2026-09-19T14:19:37.968672Z

Period
96.11 min
Inclination
69.9988°
Eccentricity
0.0002831
Mean motion
14.98329483 rev/d
Perigee alt
570.1 km
Apogee alt
574.0 km
Semi-major
6,950.2 km
B*
1.8595e-5
RAAN
125.5533°
Arg perigee
272.0713°
Mean anomaly
88.0122°
Rev number
27,720

§ Raw data

STARLINK-31031 49177U 21082AZ  26262.59696723  .00000129  00000+0  18595-4 0  99992 49177  69.9988 125.5533 0002831 272.0713  88.0122 14.98329483277209

JSON: /api/v1/satellites/49177 · /tle

For live sub-satellite position, see the globe view (requires WebGL).

§ Visibility from observer

Set your observer location to see the next 7 days of passes ≥ 10°. The values pass through the URL so the page stays shareable.

No JS? Fill the form by hand. The geolocation button needs JavaScript.